Regional Weather Roundup
Issued by NWS

Home | Current Version | Previous Version | Text Only | Print | Product List | Glossary Off
Versions: 1 2 3 4 5 6 7 8 9 10 11 12 13 14 15 16 17 18 19 20 21 22 23 24 25 26 27 28 29 30 31 32 33 34 35 36 37 38 39 40 41 42 43 44 45 46 47 48 49 50

000
ASUS43 KMKX 040711
RWRWI

WISCONSIN REGIONAL WEATHER ROUNDUP
NATIONAL WEATHER SERVICE MILWAUKEE/SULLIVAN WI
200 AM CDT FRI SEP 04 2015

NOTE: "FAIR" INDICATES FEW OR NO CLOUDS BELOW 12,000 FEET WITH NO
SIGNIFICANT WEATHER AND/OR OBSTRUCTIONS TO VISIBILITY.

WIZ001-002-006>008-014>016-023>028-040800-
NORTHWEST WISCONSIN

CITY           SKY/WX    TMP DP  RH WIND       PRES   REMARKS
SUPERIOR ARPT  CLEAR     56  56  98 NE7       29.99F
ASHLAND        FOG       50  50 100 CALM      30.01F VSB 3/4
HAYWARD        PTCLDY    60  59  96 CALM      30.00S
SIREN          PTCLDY    69  65  85 SE6       29.96S
CUMBERLAND     MOCLDY    64  63  94 SE7       29.98F
RICE LAKE      CLOUDY    67  64  89 CALM      30.00F
CHETEK         CLOUDY    67  65  94 E8        29.99S
LADYSMITH      CLEAR     65  64  95 E5        30.03S
EAU CLAIRE     CLOUDY    70  64  81 E7        29.97R
MENOMONIE      MOCLDY    69  66  91 E5        29.97S
NEW RICHMOND   CLEAR     69  64  84 E8        29.95S
OSCEOLA        CLEAR     71  66  85 E6        29.96S
$$

WIZ003>005-009-010-017-018-040800-
NORTH CENTRAL WISCONSIN

CITY           SKY/WX    TMP DP  RH WIND       PRES   REMARKS
MANITOWISH WTR CLEAR     63  63 100 E3        30.05S
ARBOR VITAE    FOG       62  61  97 CALM      30.05F VSB 3/4
WOODRUFF       FOG       62  61  97 CALM      30.05F VSB 3/4
RHINELANDER    FOG       57  56  96 E6        30.06F VSB 1/4
EAGLE RIVER    FOG       60  60 100 CALM      30.06S VSB 1/2
LAND O LAKES   FOG       56  56 100 CALM      30.07F VSB 3/4
PHILLIPS       CLEAR     62  62  98 E3        30.03S
TOMAHAWK       FOG       54  53  96 CALM      30.05S VSB 1/2
MEDFORD        CLEAR     62  62 100 E6        30.03S
MERRILL          N/A     57  57 100 CALM      30.05S FOG
$$

WIZ029-030-035-036-043>047-040800-
CENTRAL WISCONSIN

CITY           SKY/WX    TMP DP  RH WIND       PRES   REMARKS
WAUSAU         CLEAR     63  62  97 CALM      30.01S FOG
MOSINEE        CLEAR     61  61 100 NE5       30.03S
MARSHFIELD     CLOUDY    67  63  87 E7        30.01R
STEVENS POINT  CLEAR     59  59  99 NE5       30.02S FOG
WAUPACA          N/A     63  62  97 N3        30.01S FOG
WAUTOMA        MOCLDY    65  65 100 CALM      30.00S
WISC RAPIDS    CLOUDY    67  63  87 E7        30.01S
CAMP DOUGLAS   MOCLDY    68  68 100 CALM      29.99R
$$

WIZ011>013-019>022-031-037>040-048>050-040800-
NORTHEAST WISCONSIN

CITY           SKY/WX    TMP DP  RH WIND       PRES   REMARKS
ANTIGO         CLEAR     58  58 100 NE5       30.05S FOG
SHAWANO        NOT AVBL
OCONTO         CLEAR     64  64 100 N3        30.01R
STURGEON BAY   CLOUDY    66  63  88 N6        30.02S
GREEN BAY      CLOUDY    68  64  87 N8        30.00R
MANITOWOC      CLOUDY    67  65  93 MISG      29.99R
APPLETON       CLEAR     63  63 100 N6        29.99R
CLINTONVILLE   FOG       63  61  94 N5        30.01S VSB 1
OSHKOSH        CLEAR     64  62  93 NW3       29.99R
$$

WIZ032>034-041-042-053>061-040800-
SOUTHWEST WISCONSIN

CITY           SKY/WX    TMP DP  RH WIND       PRES   REMARKS
LA CROSSE      CLEAR     72  66  81 SE8       29.95S
SPARTA         CLOUDY    69  65  87 CALM      29.99R
VIROQUA          N/A     67  67 100 E8        29.98S
BOSCOBEL       CLEAR     71  68  90 CALM      29.96S
PRAIRIE DU CHI MOCLDY    73  69  86 E5        29.94S
PLATTEVILLE    CLEAR     70  69  96 E9        29.97R
$$

WIZ056-057-062-063-064-067-068-040800-
SOUTH CENTRAL WISCONSIN

CITY           SKY/WX    TMP DP  RH WIND       PRES   REMARKS
REEDSBURG      CLOUDY    69  67  92 E5        29.98R
BARABOO/DELLS  CLOUDY    69  65  86 E3        29.99R
LONE ROCK      PTCLDY    69  65  86 E3        29.98R
MINERAL POINT  CLEAR     72  66  83 E7        29.98S
MADISON        CLOUDY    71  65  81 E5        29.97S
MIDDLETON      CLOUDY    72  68  89 E3        29.99R
WATERTOWN      CLOUDY    69  69 100 NE5       29.98S
MONROE         PTCLDY    70  68  94 E3        29.98S
JANESVILLE     CLEAR     70  68  94 CALM      29.97S
$$

WIZ051-052-058>065-066-070>072-040800-
SOUTHEAST WISCONSIN

CITY           SKY/WX    TMP DP  RH WIND       PRES   REMARKS
MILWAUKEE      MOCLDY    66  63  90 CALM      29.97S
WAUKESHA       CLEAR     64  63  94 CALM      29.99S
MILWAUKEE/TIMM CLOUDY    64  61  88 CALM      29.98S
RACINE         CLOUDY    66  63  90 NW3       29.99R
BURLINGTON     MOCLDY    65  64  94 CALM      29.98S
KENOSHA        PTCLDY    66  64  93 N3        29.97F
FOND DU LAC    FOG       60  60 100 CALM      29.99S VSB 1/4
SHEBOYGAN      CLOUDY    64  63  96 NW6       29.98S
WEST BEND        N/A     59  59 100 CALM      29.98S FOG
JUNEAU         CLOUDY    66  65  97 CALM      30.00S FOG
$$

LSZ147-162-040800-
LAKE SUPERIOR

STATION/POSITION TIME  TEMP    WIND        PRES    WAVE
                       AIR SEA DIR/SP/G            HT/PER
                 (UTC) (F)     (DEG/KT/KT) (MB)    (FT/S)
W MID LAKE BUOY  0650   60 56   90/  6/  8 1016.5R   1
DEVILS ISLAND    0700   59      80/  6/  6 1016.3R
PORT WING        0600   56     100/  3/  4 1015.9
SAXON HARBOR     0600   56        CALM     1015.6
$$

LMZ867-665-643>646-040800-
LAKE MICHIGAN

STATION/POSITION TIME  TEMP    WIND        PRES    WAVE
                       AIR SEA DIR/SP/G            HT/PER
                 (UTC) (F)     (DEG/KT/KT) (MB)    (FT/S)
CHAMBERS ISLAND  0600   65     360/  8/ 10 1015.9R
S GREEN BAY BUOY 0700   67 66   10/ 12/ 14 1017.0
N MID LAKE BUOY  0650   68 66   40/  8/ 10 1015.5R   1/ 3
NORTHPORT PIER   0600   67      20/  5/  8 1015.6R
SISTER BAY       0626   66      40/  4/  7   N/A
ALGOMA LAKESHORE 0614           50/  6/  9   N/A
KEWAUNEE LAKESHO 0600   66      10/  6/  9 1014.0R
SHEBOYGAN LAKESH 0700   65     330/  8/ 10 1015.2R
PORT WASHINGTON  0600   65     290/  5/  7 1015.6R
ATWATER BUOY     0700   61     330/  2/  4 1016.2S
MILWAUKEE LAKESH 0610   67     290/  1/  1   N/A
S MID LAKE BUOY  0650   69 71  300/ 10/ 12 1013.5F   1/ 4
KENOSHA   LAKESH 0700   67     360/  2/  3 1014.6S
$$

TC  - TEMPERATURE IN CELSIUS
VSB - VISIBILITY IN STATUTE MILES
WCI - WIND CHILL INDEX
HX  - HEAT INDEX




USA.gov is the U.S. government's official web portal to all federal, state and local government web resources and services.